Hourly Data Report for October 11, 2017

All times are specified in Local Standard Time (LST). Add 1 hour to adjust for Daylight Saving Time where and when it is observed.

NAPPAN AUTO
NOVA SCOTIA

45°45'34.400" N
64°14'29.200" W
19.80 m
8203702
71311
XNP

Download Data

Hourly Data (October 2017)
Hourly Data Report for October 11, 2017
Temp Definition
°C
Dew Point Temp Definition
°C
Rel Hum Definition
%
Wind Dir Definition
10's deg

Wind Spd Definition
km/h
Visibility Definition
km
Stn Press Definition
kPa
Hmdx Definition


Wind Chill Definition


Weather Definition


TIME
00:00 16.2 14.5 90 23 3   101.12     LegendNANA
01:00 16.0 14.2 89 28 4   101.18     LegendNANA
02:00 14.8 12.8 88 34 11   101.19     LegendNANA
03:00 12.8 11.1 90 34 11   101.27     LegendNANA
04:00 12.6 10.5 87 33 13   101.33     LegendNANA
05:00 11.2 8.6 84 32 13   101.38     LegendNANA
06:00 9.7 7.3 85 31 13   101.44     LegendNANA
07:00 9.7 6.9 83 33 14   101.51     LegendNANA
08:00 10.7 6.7 76 34 11   101.59     LegendNANA
09:00 11.6 5.7 67 31 18   101.65     LegendNANA
10:00 12.4 3.4 54 31 21   101.69     LegendNANA
11:00 12.9 4.0 55 30 25   101.69     LegendNANA
12:00 13.0 2.5 49 31 21   101.69     LegendNANA
13:00 12.6 1.6 47 33 20   101.72     LegendNANA
14:00 13.3 1.4 44 32 19   101.72     LegendNANA
15:00 13.4 1.8 45 33 20   101.72     LegendNANA
16:00 13.6 2.5 47 32 14   101.78     LegendNANA
17:00 12.1 2.3 51 33 14   101.85     LegendNANA
18:00 9.0 3.5 68 3 11   101.93     LegendNANA
19:00 8.1 2.5 68 35 14   102.02     LegendNANA
20:00 8.2 2.7 69 32 9   102.10     LegendNANA
21:00 7.5 1.9 67 33 10   102.17     LegendNANA
22:00 6.7 0.9 66 34 14   102.24     LegendNANA
23:00 5.7 0.7 70 31 11   102.33     LegendNANA

Notes on Data Quality.

Legend

  • E = Estimated
  • M = Missing
  • NA = Not Available
  • ‡ = Partner data that is not subject to review by the National Climate Archives
Date modified: